Location: *
(51.8167°N, 12.5000°E)
Time: 23:14:40
(UTC+00:00)

Meteor 2-5 Rocket - Pass Details

Date: 16 September 2019
Orbit: 834 x 911 km, 81.2° (Epoch: 16 October)

Event Time Altitude Azimuth Distance (km) Brightness Sun altitude
Rises 19:57:40 0° 344° (NNW) 3,470 7.7 -22.9°
Reaches altitude 10° 20:00:07 10° 341° (NNW) 2,539 7.0 -23.2°
Maximum altitude 20:05:46 58° 264° (W) 1,030 4.3 -23.8°
Enters shadow 20:08:52 27° 196° (SSW) 1,643 5.0 -24.2°
